Elmer, LA (71424)

3:26 AM CDT on August 30, 2015 (GMT -0500)
Downs Lane | | Change Station
CLOSE
Current Station
Personal Weather Station
Location: Alexandria, LA
Elevation: 69 ft
Nearby Weather Stations

Elev 69 ft 31.28 °N, 92.57 °W | Updated 14 minutes ago

Clear
Clear
68.5 °F
Feels Like 68.5 °F
N
0.0
Wind Variable Wind from SSE

Today
High -- | Low -- °F
--% Chance of Precip.
Yesterday
High -- | Low -- °F
Precip. -- in
6:45 AM 7:36 PM
Full, 100% visible
Pressure 30.06 in
Visibility 10.0 miles
Clouds Clear
Dew Point 65 °F
Humidity 88%
Rainfall 0.00 in
Snow Depth Not available.
UV 0 out of 12
Pollen 6.40 out of 12
Air Quality Not available.
Flu Activity Not available.
METAR KBKB 300754Z AUTO 00000KT 10SM CLR 21/18 A2998 RMK AO2 SLP177 T02110183 $
Pressure 30.06 in
Visibility 10.0 miles
Clouds Clear
Dew Point 65 °F
Humidity 88%
Rainfall 0.00 in
Snow Depth Not available.
UV 0 out of 12
Pollen 6.40 out of 12
Air Quality Not available.
Flu Activity Not available.
METAR KBKB 300754Z AUTO 00000KT 10SM CLR 21/18 A2998 RMK AO2 SLP177 T02110183 $

10-Day Weather Forecast

×

Almanac

Astronomy

Aug. 30, 2015 Rise Set
Actual Time
Civil Twilight
Nautical Twilight
Astronomical Twilight
Moon
Length of Visible Light
Length of Day
Tomorrow will be .
, % of the Moon is Illuminated

Today's Extremes

State Highs State Lows

Community

WunderPhotos

Upload Photos

1,850,909 photos uploaded!

WunderBlogs® & News

Nearby

Air Quality

  Air Quality AQ Index Pollutant
Not available.

Snow Depth

Station Depth Elevation

Earthquake Activity

City Distance Mag. Time & Date
Minimum magnitude displayed is 2.5.

Coastal Water Temperatures

Place Temperature

Stations

Nearby Weather Stations

Station Location Temp. Windchill Dew Point Humidity Wind Precip. Elev Updated Type